OPS 4682 DEB, 1389

Orbit data source: Space-Track

OPS 4682 DEB, 1389 is space debris in LEO originally from a launch on Sat, 03 Apr 1965 UTC launched from the Air Force Western Test Range (AFWTR). Debris objects in space refer to the collection of defunct objects orbiting the Earth. Examples of debris include non-operational satellites, rocket bodies, and fragments generated from explosions, collisions, or faulty payload assembly.

Loading next visibility...
Identifier
1389, 1965-027D
Orbit
LEO
Country
Flag of USUS
Related business
Manufacturer
Unknown
Mission
Spacecraft
Bus & Motor
Unknown
Mass
7 kg wet, 7 kg dry
Launch date (UTC)
1965-04-03 (61 years ago)
Launch vehicle
Unknown
Launch site
Air Force Western Test Range (AFWTR)
Object type
Payload
Rocket body
Debris
Shape & HBR
Unknown
Radar Cross Section
Medium (>0.1 m² and <1 m²)

Expand to show TLE details & history
Last TLE update: 1 day ago

TLE from 1 day ago
0 OPS 4682 DEB
1 01389U 65027D   26135.30579021  .00000892  00000-0  23695-2 0  9991
2 01389  89.8676 220.1088 0023402 217.2814 208.7793 13.14738700906368
Epoch: 2026-05-15T07:20Z
TLE epoch observation values (Epoch: 2026-05-15T07:20:20.274Z)
Latitude
66.00959°
Longitude
-122.71867°
Altitude
1,231.936 km
Speed
7.237 km/s
True Right ascension
14h 41m 37s
True Declination
65° 53' 22"
Sunlit
Object was in daylight at epoch
Visualization orbit readout
Latitude
Unknown
Longitude
Unknown
Altitude
Unknown
Speed
Unknown
Apparent Right ascension
Unknown
Apparent Declination
Unknown
Sunlit
N/A
Visualization observer readout
Local Sidereal Time
19:59:47
Azimuth
Unknown
Elevation
Unknown
Doppler factor
Unknown
Orbital elements
Apogee altitude
1,219.724 km
Perigee altitude
1,184.246 km
Semi-major axis
7,580.122 km
Eccentricity
0.00234
Inclination
89.8676°
RAAN
220.1088°
Arg. of periapsis
217.2814°
True anomaly
208.65052°
Mean anomaly
208.7793°
Eccentric anomaly
208.71488°
Mean motion
3.28874 °/min
Orbital period
109.46 mins
BSTAR
0.0023695
Loading maneuver chart data...
Computing Atmospheric mass density...
Loading historical data...
Loading historical data...
Loading historical data...
Loading historical data...
Loading historical data...
Loading historical data...
Loading historical data...

Documentation

Showing up to 5 results
|